Location: Krasnoyarskiy Pitomnik
(51.1333°N, 71.6167°E)
Time: 09:04:16
(UTC+00:00)

HJ-1C - Pass Details

Date: 22 October 2021
Orbit: 422 x 433 km, 97.1° (Epoch: 06 December)

Event Time Altitude Azimuth Distance (km) Brightness Sun altitude
Exits shadow 13:10:09 13° 116° (ESE) 1,368 5.3 -10.6°
Maximum altitude 13:12:21 23° 67° (ENE) 953 4.5 -11.0°
Drops below altitude 10° 13:15:01 10° 12° (NNE) 1,535 5.9 -11.4°
Sets 13:17:17 0° 358° (N) 2,410 7.1 -11.8°
